Regional Weather Roundup
Issued by NWS Cleveland, OH

Home | Current Version | Previous Version | Graphics & Text | Print | Product List | Glossary On
Versions: 1 2 3 4 5 6 7 8 9 10 11 12 13 14 15 16 17 18 19 20 21 22 23 24 25 26 27 28 29 30 31 32 33 34 35 36 37 38 39 40 41 42 43 44 45 46 47 48 49 50
000
ASUS41 KCLE 270810
RWRCLE
OHIO REGIONAL WEATHER ROUNDUP
NATIONAL WEATHER SERVICE CLEVELAND, OH
400 AM EDT TUE SEP 27 2016

NOTE: "FAIR" INDICATES FEW OR NO CLOUDS BELOW 12,000 FEET WITH NO
SIGNIFICANT WEATHER AND/OR OBSTRUCTIONS TO VISIBILITY.

OHZ001>008-015>018-024>027-034-035-043-044-270900-
   NORTHWEST OHIO

CITY           SKY/WX    TMP DP  RH WIND       PRES   REMARKS
DEFIANCE       CLEAR     51  39  63 SW7       29.91F
FINDLAY        CLEAR     54  37  52 SW7       29.92F
TOLEDO EXPRESS CLEAR     50  42  74 SW9       29.89F
TOLEDO EXEC    CLEAR     51  43  74 SW8       29.91F
LIMA           CLEAR     52  42  69 SW7       29.94F
$$

OHZ009>014-019>023-028>033-038-089-270900-
   NORTHEAST OHIO

CITY           SKY/WX    TMP DP  RH WIND       PRES   REMARKS
CLE-HOPKINS    CLEAR     54  44  69 SW8       29.94F
CLE-LAKEFRONT  CLEAR     56  44  64 S13       29.90F
CUY CO. ARPT   NOT AVBL
LORAIN-ELYRIA  CLEAR     47  41  80 SW7       29.92F
ASHTABULA      CLEAR     52  49  89 SW8       29.92F
AKRON-CANTON   CLEAR     50  45  83 SW8       29.95F
WOOSTER        CLEAR     49  46  90 SW7       29.96F
MANSFIELD      CLEAR     48  42  80 SW7       29.95F
YOUNGSTOWN     CLEAR     51  49  92 S7        29.94F
$$

OHZ042-051>053-060>062-070>072-077>081-270900-
  SOUTHWEST OHIO

CITY           SKY/WX    TMP DP  RH WIND       PRES   REMARKS
CINC-COVINGTON CLEAR     52  50  93 SW5       30.02F
CINC-LUNKEN    CLEAR     48  48 100 S7        30.03F
HAMILTON       CLEAR     45  43  93 CALM      30.02S FOG
DAYTON         CLEAR     51  45  79 SW9       30.00F
WRIGHT-PAT AFB CLEAR     51  47  86 SE5       29.99F
DAYTON GENERAL CLEAR     51  46  83 S3        30.00F
WILMINGTON     CLEAR     48  48 100 SW6       30.01F
$$

OHZ036-037-039>041-045>050-054>059-063>069-073>076-082>088-270900-
  CENTRAL AND SOUTHEAST OHIO

CITY           SKY/WX    TMP DP  RH WIND       PRES   REMARKS
COLUMBUS       CLEAR     51  50  96 SE5       29.99F
OSU AIRPORT    CLEAR     51  49  92 SW6       29.98F
BOLTON FIELD   CLEAR     48  47  96 SW6       30.00S
RICKENBACK AFB CLEAR     50  48  95 SW7       29.99F
NEWARK         CLEAR     47  45  93 CALM      29.99F
MARION         CLEAR     47  43  86 S7        29.96F
LANCASTER      CLEAR     52  49  89 S5        30.00F
ZANESVILLE     CLEAR     50  49  96 S6        29.99F
NEW PHILLY     CLEAR     51  51 100 SE5       29.98F
$$




USA.gov is the U.S. government's official web portal to all federal, state and local government web resources and services.